Theta_e
295 296 296 295 295 297 302 304 305 303 303 308 307 308 306 305 306 304 304 304 304 305 305 305 305 304 305 306 306 307 308 309 311 308 308 308 309 309 309 311 309 310 312 318
295 295 295 295 294 297 301 303 304 301 303 307 308 306 306 306 306 306 306 305 305 305 305 306 305 305 304 304 305 306 308 309 308 308 309 308 308 308 309 309 310 308 315 317
295 295 294 295 295 296 299 300 304 303 303 304 305 306 307 305 305 306 306 306 305 305 306 306 307 305 304 305 306 306 306 307 307 309 307 306 308 307 307 308 311 309 312 310
294 293 294 294 295 295 298 299 303 303 305 303 304 305 306 306 307 305 304 305 305 305 305 304 304 304 304 304 305 306 306 305 306 305 305 305 305 305 305 305 305 307 310 307
293 293 294 295 294 295 297 299 302 300 304 303 306 305 306 305 305 306 306 306 305 305 306 306 306 306 305 304 304 305 306 305 305 310 304 304 307 306 307 305 304 304 305 305
293 293 293 294 294 294 296 297 296 299 301 303 303 304 304 306 305 305 305 305 306 309 307 306 306 306 306 307 306 306 306 305 305 307 306 306 307 309 307 306 305 305 306 306
293 293 292 293 293 294 295 295 296 299 300 300 302 302 303 304 303 304 304 305 306 306 304 304 306 306 306 306 307 307 306 307 307 309 307 310 307 306 305 305 305 305 305 305
293 294 293 292 292 294 295 295 295 297 297 298 299 300 300 301 302 304 304 304 305 304 302 306 308 306 306 306 307 306 306 307 308 310 307 306 305 305 305 305 306 306 307 310
292 292 292 293 293 293 293 295 295 296 298 297 296 298 298 300 301 302 303 304 304 303 304 309 306 305 305 305 306 306 306 306 309 310 310 307 304 305 307 307 308 309 311 312
292 293 293 292 293 293 293 294 295 295 296 296 297 298 299 300 301 302 302 303 305 303 306 307 306 305 307 308 307 308 309 311 311 308 307 305 304 304 306 307 306 309 309 310
292 293 293 293 293 293 293 293 294 294 298 297 296 297 299 299 300 302 302 302 305 305 307 307 305 305 306 306 305 304 306 308 308 307 307 306 304 306 307 307 307 307 308 309
292 293 293 293 293 293 293 293 293 294 294 296 295 295 296 297 297 299 299 303 301 304 306 306 305 306 306 306 306 304 305 305 306 306 304 307 306 306 306 306 305 307 309 309
292 292 293 293 293 293 293 293 292 293 294 294 295 295 294 294 295 297 300 300 299 298 303 306 306 306 305 306 305 304 304 304 305 305 304 305 305 306 307 306 306 307 306 307
291 292 293 293 293 293 293 293 292 293 293 295 295 296 296 297 297 297 297 299 300 299 300 306 306 306 305 306 305 306 304 304 304 305 306 306 306 305 306 306 307 308 307 307
292 292 292 292 292 292 292 293 293 293 293 295 296 294 294 297 298 298 299 300 301 301 303 308 306 305 306 305 305 305 303 304 306 307 305 306 305 304 304 302 305 308 307 306
292 292 292 292 292 292 292 295 293 293 293 295 294 297 299 297 299 300 300 301 301 299 303 307 305 304 305 304 304 302 302 303 303 303 303 302 302 303 302 302 303 304 305 305
292 292 292 292 292 292 293 293 293 293 293 296 295 297 298 298 297 295 296 295 298 304 304 304 304 303 303 303 304 302 301 301 301 301 301 301 301 301 301 302 304 304 303 303
292 292 292 292 292 293 293 293 294 294 293 294 295 297 299 298 301 301 296 302 303 304 304 303 303 302 303 303 302 301 301 301 301 301 301 301 301 301 302 303 303 303 305 305
292 292 292 292 293 294 293 292 292 292 292 295 296 297 300 299 300 301 301 301 303 302 303 302 303 303 303 303 301 301 301 301 301 301 301 302 302 302 302 303 305 305 305 305
292 292 292 294 294 292 292 293 294 294 295 295 299 298 301 300 300 301 301 301 301 301 301 302 303 303 302 302 302 302 303 302 302 302 302 302 302 303 303 303 304 304 304 305
294 294 295 295 293 293 294 297 295 297 298 298 298 300 301 300 301 301 300 300 300 302 303 303 302 303 303 303 305 305 305 304 303 302 303 303 303 303 303 304 304 303 303 303
294 294 294 294 295 295 295 298 298 299 300 299 299 299 300 301 300 301 299 300 298 301 303 303 303 303 303 304 302 303 302 303 303 303 304 304 303 303 303 303 302 301 298 296
294 295 295 296 296 297 298 300 300 300 299 298 297 300 300 300 300 301 300 299 300 301 303 303 303 304 303 300 296 301 300 300 301 301 302 303 303 303 303 304 302 300 297 296
295 295 298 298 298 299 298 299 299 298 298 297 299 298 300 297 299 300 300 300 300 302 303 302 304 303 301 300 298 299 299 297 299 297 297 295 298 295 295 297 296 294 291 290
296 296 299 298 297 297 296 296 299 298 298 298 299 299 299 298 300 299 300 301 302 301 302 305 304 299 298 299 297 297 297 295 297 295 292 291 291 292 291 290 291 290 288 288
296 296 297 298 298 299 298 299 299 297 299 300 301 301 301 301 301 300 301 300 300 303 303 303 299 298 297 297 295 295 294 295 295 293 291 290 290 291 289 288 288 288 287 287
295 295 295 297 296 298 299 298 297 297 299 300 301 300 301 302 303 302 301 302 302 303 302 300 298 297 296 295 295 294 293 294 293 292 291 290 288 288 291 291 287 287 285 285
Wind_Speed
3 4 4 5 4 5 8 4 4 4 15 7 4 11 11 6 13 8 14 10 15 17 17 18 20 18 15 1 3 11 9 7 11 15 3 4 10 14 14 11 12 11 11 15
4 4 4 4 3 5 3 2 2 3 6 7 11 14 13 19 19 14 11 12 11 10 13 9 14 18 19 19 13 8 6 7 11 16 10 9 10 12 11 8 7 15 12 14
5 5 4 4 3 4 3 1 3 3 3 3 14 18 20 20 13 20 19 14 13 13 15 14 9 12 5 5 11 3 4 14 14 13 13 5 7 10 8 10 11 14 18 21
5 6 7 6 5 4 4 2 3 4 3 9 8 15 12 18 13 15 9 8 18 14 7 12 16 17 18 16 10 6 5 15 16 15 13 11 14 18 18 20 21 19 24 23
6 6 5 7 8 6 6 2 3 2 3 4 8 12 14 22 21 9 6 15 15 7 11 15 14 14 12 12 7 12 6 12 8 3 10 12 15 17 16 21 23 22 25 32
9 9 8 7 8 8 6 4 1 2 3 4 9 14 10 8 15 8 15 15 12 11 17 15 14 12 14 15 14 13 11 8 10 18 16 13 16 14 20 22 21 20 22 24
12 11 11 11 11 10 10 7 4 3 10 12 13 10 9 9 13 16 15 15 17 5 3 7 14 15 15 17 19 17 19 11 3 7 10 15 16 7 11 15 14 14 18 19
14 13 14 14 14 12 13 11 6 3 11 13 16 19 15 13 12 15 11 13 15 4 2 2 6 10 11 17 20 19 17 15 9 7 13 17 15 14 16 17 15 13 10 9
16 17 17 15 15 14 14 15 14 6 5 13 20 18 17 15 14 14 10 11 10 6 3 5 5 6 6 4 4 9 17 14 7 6 5 7 4 5 4 4 11 6 5 6
18 16 17 17 17 16 16 15 12 9 6 13 15 9 9 7 7 8 10 5 6 9 4 7 7 9 3 5 5 1 9 9 13 11 10 9 5 7 4 10 4 1 7 8
19 18 17 18 18 19 19 18 16 12 5 15 16 13 11 11 6 8 3 4 5 5 6 4 4 6 7 6 7 4 9 6 8 8 11 14 7 4 11 4 10 11 12 12
21 19 17 17 18 20 20 18 17 16 11 8 15 15 19 21 21 11 3 5 4 4 4 6 4 5 4 8 7 11 11 12 8 5 5 4 4 5 7 7 9 9 12 14
23 21 19 18 18 20 22 21 17 14 7 12 18 17 29 32 32 24 9 4 4 4 7 4 4 6 4 6 9 11 10 10 7 11 11 16 14 13 11 11 9 8 3 14
25 23 20 19 21 21 22 21 19 18 7 6 11 7 15 14 18 27 31 22 12 4 6 7 5 5 2 7 8 8 7 5 10 13 15 14 12 18 16 12 9 12 6 9
25 23 21 19 19 18 19 19 19 20 12 4 6 20 30 15 19 25 26 25 15 5 3 4 5 4 4 6 7 9 10 14 10 11 13 10 16 15 10 11 11 11 8 6
25 22 20 18 11 9 7 3 16 20 17 4 4 4 7 11 7 17 14 15 7 3 3 4 3 2 4 7 11 12 14 15 16 16 16 14 16 14 13 14 15 15 10 8
23 21 18 17 13 17 8 3 3 21 20 3 4 4 1 4 3 1 1 6 4 5 4 4 5 6 4 8 15 19 18 17 18 18 15 16 17 12 12 11 11 9 14 14
21 18 17 15 13 16 15 8 7 20 11 4 3 5 3 8 2 2 2 3 4 5 3 2 4 1 5 6 18 15 16 16 17 18 15 16 15 13 14 13 13 12 10 7
17 14 9 7 7 6 11 14 11 5 2 3 4 4 3 4 0 1 2 1 2 1 3 3 3 5 7 17 16 16 14 13 15 12 8 9 13 14 15 11 9 9 8 7
14 10 4 3 6 8 12 5 4 4 4 4 4 3 4 3 2 1 2 1 1 2 4 2 4 7 19 16 16 15 15 15 14 14 16 16 17 14 14 15 12 10 9 8
9 4 2 3 18 5 2 4 6 5 5 5 6 8 3 3 2 2 2 1 1 3 2 3 3 5 3 3 7 7 8 7 10 12 14 13 12 11 9 8 7 6 6 7
7 8 5 7 3 4 5 4 4 5 5 4 5 5 4 3 2 2 3 2 1 4 1 3 4 3 1 5 7 8 7 6 3 3 4 4 6 7 6 3 6 9 12 12
4 2 2 4 5 8 5 5 3 3 4 5 4 4 3 3 3 1 3 4 4 0 3 4 3 2 2 3 3 5 6 6 6 5 5 5 6 7 10 7 10 13 13 14
1 3 4 4 3 4 2 3 2 2 1 5 5 4 2 2 4 2 3 3 2 3 3 4 3 4 4 4 4 5 5 5 6 6 6 5 4 4 6 9 12 12 9 10
3 2 2 3 1 1 2 2 1 1 4 5 4 3 2 2 3 3 3 3 5 4 4 3 3 4 4 4 5 5 5 4 4 4 4 4 4 5 7 7 9 12 13 13
2 2 2 1 3 1 2 1 0 1 3 1 1 2 3 5 3 5 6 3 5 2 1 3 2 2 3 4 5 5 4 5 2 4 4 5 5 6 7 9 9 10 12 12
2 2 2 2 2 2 1 1 0 1 1 1 2 3 4 0 3 4 4 3 2 3 3 1 1 3 3 3 3 3 3 3 2 2 3 4 6 8 9 8 6 9 10 13
Wind_Direction
294 311 320 306 277 283 197 171 231 182 165 204 217 230 229 249 242 234 252 268 264 267 268 271 270 266 260 30 295 270 254 271 254 257 262 289 268 269 260 245 252 240 262 269
290 285 289 300 287 203 224 231 260 163 197 230 229 243 243 242 247 239 235 237 238 254 261 269 258 265 266 271 256 261 209 232 260 248 208 209 233 235 252 272 275 262 271 271
249 259 279 281 284 236 238 241 229 183 213 269 250 257 255 246 244 249 247 247 265 258 256 252 265 268 275 288 262 260 236 255 257 267 285 335 235 224 234 258 257 265 257 278
274 278 268 262 247 241 209 194 235 215 208 224 224 243 266 245 232 233 231 251 239 241 248 261 260 263 265 264 253 236 237 259 266 266 275 276 275 271 270 262 258 256 269 266
268 274 294 248 240 232 227 242 248 171 302 214 225 233 228 247 250 220 226 233 253 249 228 247 269 286 271 267 264 245 226 253 268 255 265 268 269 261 253 260 261 261 262 266
258 261 267 264 249 229 240 223 283 252 257 277 251 246 243 265 273 264 240 240 236 243 238 273 273 270 270 266 263 262 261 260 253 257 256 265 264 250 242 257 253 251 257 272
250 245 245 250 250 242 238 244 246 269 266 250 253 261 248 264 271 261 267 253 243 271 85 337 272 252 254 249 245 241 243 223 255 273 254 255 273 238 254 259 266 263 265 273
255 251 243 242 252 254 250 243 232 233 257 269 270 257 269 283 272 263 255 239 244 59 43 202 250 240 242 239 235 232 228 233 238 241 253 269 247 236 264 263 279 262 269 290
256 255 254 249 246 250 256 250 229 231 268 253 260 267 273 271 275 284 266 276 246 171 211 214 222 232 226 228 197 236 225 226 209 213 240 252 292 144 168 261 267 153 274 323
255 255 254 247 243 244 245 250 236 234 245 261 266 249 267 281 268 270 285 272 222 176 213 211 231 239 149 217 198 199 198 195 217 233 254 269 254 232 222 252 289 360 333 325
249 253 253 249 244 242 240 248 240 235 254 263 265 272 269 267 257 261 19 310 225 192 219 214 215 243 202 225 182 201 209 199 217 238 250 266 223 149 225 336 320 311 312 303
243 247 248 250 245 241 237 244 237 241 240 280 300 279 268 269 270 276 237 283 332 302 211 221 237 215 194 227 240 205 245 231 262 257 268 37 185 245 260 282 289 308 302 300
240 240 242 246 247 242 236 235 233 232 253 272 260 260 261 255 248 242 248 220 204 245 313 283 247 246 232 231 240 249 242 250 250 267 253 255 257 288 274 267 266 216 260 300
240 237 239 245 249 242 237 227 228 225 266 265 273 294 255 261 256 241 230 245 234 266 298 274 258 250 230 263 270 251 262 270 251 261 264 269 282 279 277 284 246 247 252 274
232 230 236 248 253 243 238 231 227 224 226 277 298 301 283 271 266 238 230 223 226 227 249 236 232 256 256 244 281 255 242 242 246 254 255 242 266 279 294 289 273 256 281 318
227 222 229 239 241 219 202 233 233 223 220 258 276 332 253 268 261 235 218 220 213 181 221 230 235 248 247 266 263 271 245 239 247 256 265 278 280 287 278 274 276 272 260 263
211 213 223 228 231 196 197 228 248 197 180 244 268 261 167 290 195 205 214 184 196 211 229 238 257 237 214 264 267 258 258 253 259 263 273 275 266 265 271 273 266 266 271 274
196 207 216 236 217 216 226 210 111 159 175 209 256 268 268 178 216 225 218 187 189 200 242 207 241 227 234 258 259 275 266 261 263 265 261 255 271 284 279 274 270 267 258 242
190 199 208 200 200 192 216 211 218 202 284 233 220 258 282 170 156 79 161 218 183 55 242 239 240 231 232 248 280 289 288 267 264 261 270 248 241 272 275 270 253 263 270 223
170 150 167 189 189 167 143 153 186 206 191 219 264 250 245 239 178 73 128 159 269 239 235 145 235 254 254 278 287 292 294 268 262 265 263 260 266 265 264 255 254 270 269 215
161 157 182 88 135 113 166 209 195 184 212 203 226 213 205 183 212 156 224 192 281 256 149 235 237 259 270 264 319 330 323 304 264 257 266 270 268 266 259 254 252 252 218 192
150 125 107 138 175 202 227 201 192 219 221 181 195 178 185 138 252 181 183 219 195 248 74 243 252 252 236 348 9 335 347 3 358 337 295 288 267 250 235 197 129 113 107 112
111 128 228 194 159 216 237 194 194 208 175 180 174 149 133 137 217 168 189 217 232 302 233 241 254 22 58 18 325 318 10 10 23 26 30 56 72 103 139 130 126 125 115 131
231 216 220 245 165 245 255 302 347 62 134 150 166 121 145 162 184 174 221 223 246 261 265 252 318 16 3 13 342 346 3 9 17 24 26 37 71 67 69 123 147 143 134 153
248 227 257 239 327 311 337 320 279 76 139 143 130 128 193 164 200 206 234 221 231 229 255 329 27 15 5 11 10 354 355 342 13 25 46 56 70 86 84 90 125 136 131 133
254 261 259 198 248 156 226 250 144 30 167 65 233 149 209 215 213 197 215 235 232 245 302 356 351 348 17 10 358 349 349 338 50 74 76 82 80 95 101 94 98 120 130 126
222 230 264 306 324 287 22 346 15 142 182 239 243 225 231 29 222 215 210 235 321 349 339 315 344 311 326 343 334 358 348 336 14 103 100 102 114 125 120 105 94 105 111 118